Weather in Kanash

Russia / Tyumen Oblast     57°35′40″N   65°38′00″E
temp.,
°C
wind,
m/s
gust,
m/s
humid.,
%
clouds,
%
prec.,
mm/h
press.,
hPa
HPBL,
m
13 may, thu
thu1323:00+14w1158100 0.0 102511
02:00+15wsw3954100 0.0 1024231
05:00+14w4126130 0.0 1024277
08:00+18wnw48525 0.0 1023387
11:00+24nw583832 0.0 10221851
14:00+26nnw69315 0.0 10222789
17:00+25n68385 0.0 10231520
20:00+21nnw24504 0.0 102483
14 may, fri
fri1423:00+17e25615 0.0 102585
02:00+14se23595 0.0 102659
05:00+14s24665 0.0 102678
08:00+20ssw3655100 0.0 1025368
11:00+26sw56395 0.0 10241082
14:00+29w57245 0.0 10223037
17:00+29w572420 0.0 10213124
20:00+24w33365 0.0 102050
15 may, sat
sat1523:00+20wsw23415 0.0 102029
02:00+18w37475 0.0 1020107
05:00+17wsw39585 0.0 1020157
08:00+23w59465 0.0 1019409
11:00+27w61135100 0.0 10191912
14:00+30w7122731 0.0 10183534
17:00+29wnw6112971 0.0 10163233
20:00+19sse246056 0.0 101696
16 may, sun
sun1623:00+16sw358684 2.9 1019110
02:00+15w238352 0.0 101854
05:00+15wnw268618 0.0 1020119
08:00+21wsw246127 0.0 1020287
11:00+27wsw464331 0.0 10191164
14:00+30w57256 0.0 10172201
17:00+31w4923100 0.0 10162686
20:00+25wsw223638 0.0 101526
17 may, mon
mon1723:00+21wsw36439 0.0 101598
02:00+19wsw310485 0.0 1015157
05:00+18wsw311565 0.0 1016199
08:00+23w49434 0.0 1015390
11:00+29w610260 0.0 10143017
14:00+30w6102536 0.0 10123245
17:00+29w6112482 0.0 10102729
20:00+22nw5144669 0.3 1012690